[[{"header":{"parameterUnit":"m.s-1","parameterCategory":1,"la1":30.2991,"la2":30.254,"lo1":-89.0895,"lo2":-89.0444,"dy":0.0017,"dx":0.0017,"nx":28,"ny":28,"refTime":"2023-09-24T21:00:00:Z","depth":0,"parameterNumber":2,"parameterNumberName":"U-component_of_WINDS"},"data":[0,0,0,0,0,0,0,0,0,0,0,0,0,0,0,0,0,0,0,0,0,0,0,0,0,0,0,0,0,0,0,0,0,0,0,0,0,0,0,0,0,0,0,0,0,0,0,0,0,0,0,0,0,0,0,0,0,0,-2.0994,-2.0994,0,-2.0925,-2.0924,-2.0923,-2.0824,-2.0822,-2.082,-2.0819,-2.0748,-2.0747,-2.0747,0,0,0,0,0,0,0,0,0,0,0,0,0,-2.1042,-2.1042,-2.0994,-2.0994,-2.0993,-2.0925,-2.0924,-2.0923,-2.0824,-2.0822,-2.082,-2.0818,-2.0748,-2.0747,-2.0747,0,0,0,0,0,0,0,0,0,0,0,0,0,-2.1002,-2.1042,-2.0995,-2.0935,-2.0929,-2.0925,-2.0924,-2.0923,-2.0824,-2.0822,-2.0819,-2.0817,-2.0748,-2.0747,-2.0747,-2.0795,0,0,-2.0746,-2.0745,0,0,0,0,0,0,0,0,-2.1004,-2.1,-2.0945,-2.0939,-2.0932,-2.088,-2.0914,-2.088,-2.0825,-2.0864,-2.0819,-2.0816,-2.0794,-2.0789,-2.0782,-2.0792,-2.0789,-2.0745,-2.0745,-2.0745,-2.0745,0,0,0,0,0,0,0,-2.1007,-2.1003,-2.0967,-2.0944,-2.0937,-2.0912,-2.0904,-2.0907,-2.0844,-2.0861,-2.0853,-2.0846,-2.079,-2.0783,-2.078,-2.0788,-2.0745,-2.0745,-2.0745,-2.0745,-2.0835,-2.0837,0,0,0,0,0,0,-2.1019,-2.1006,-2.0969,-2.0965,-2.0963,-2.0913,-2.0904,-2.09,-2.0844,-2.0833,-2.0849,-2.0842,-2.0785,-2.078,-2.0777,-2.083,-2.0745,-2.0745,-2.0744,-2.0832,-2.0835,-2.0838,0,0,0,0,0,0,-2.102,-2.1017,-2.0972,-2.0983,-2.0976,-2.0915,-2.0911,-2.09,-2.0892,-2.0835,-2.0823,-2.0853,-2.0782,-2.0777,-2.0792,-2.0826,-2.0744,-2.0744,-2.0829,-2.0833,-2.0837,-2.0938,0,0,0,0,0,0,-2.1022,-2.1018,-2.1036,-2.0984,-2.0975,-2.0988,-2.0913,-2.09,-2.0892,-2.0882,-2.0836,-2.0825,-2.078,-2.0793,-2.0791,-2.0824,-2.0744,-2.0825,-2.0831,-2.0835,-2.0931,-2.0945,-2.0957,0,0,0,0,0,-2.1024,-2.1067,-2.1037,-2.1033,-2.0996,-2.099,-2.0985,-2.0932,-2.0895,-2.0912,-2.0875,-2.0827,-2.0823,-2.0795,-2.0792,-2.0826,-2.0823,-2.0829,-2.0835,-2.0926,-2.0942,-2.0956,0,0,0,0,0,0,-2.1124,-2.1059,-2.1025,-2.1052,-2.1028,-2.0974,-2.0994,-2.0951,-2.0937,-2.0929,-2.0863,-2.0854,-2.0876,-2.0852,-2.0823,-2.087,-2.0816,-2.0821,-2.0885,-2.0901,-2.0913,-2.0919,-2.0743,0,0,0,0,0,-2.1149,-2.1149,-2.1093,-2.1122,-2.1111,-2.1055,-2.1051,-2.1012,-2.0983,-2.0973,-2.0937,-2.0911,-2.0904,-2.0901,-2.0891,-2.0927,-2.0916,-2.0949,-2.0961,-2.0972,-2.0978,-2.0996,-2.1011,-2.0858,-2.0858,-2.0858,0,0,-2.1201,-2.1166,-2.117,-2.1141,-2.1118,-2.112,-2.1047,-2.1052,-2.1053,-2.0973,-2.0985,-2.0958,-2.0925,-2.0951,-2.096,-2.0931,-2.1018,-2.098,-2.0989,-2.0989,-2.1004,-2.1018,-2.1031,-2.0862,-2.0861,-2.086,0,0,-2.1297,-2.127,-2.1292,-2.127,-2.1235,-2.1197,-2.1202,-2.1154,-2.1133,-2.1144,-2.1084,-2.1084,-2.1073,-2.1052,-2.104,-2.1129,-2.1084,-2.1127,-2.1194,-2.1212,-2.1225,-2.1235,-2.1268,-2.128,-2.1133,-2.1134,-2.1134,0,-2.1367,-2.1367,-2.1309,-2.1318,-2.1308,-2.1235,-2.1257,-2.1238,-2.1202,-2.1196,-2.1164,-2.1149,-2.1122,-2.1142,-2.1164,-2.1156,-2.116,-2.1133,-2.1227,-2.1237,-2.1246,-2.1276,-2.1289,-2.1139,-2.1139,-2.1138,-2.1137,0,-2.1455,-2.1456,-2.1478,-2.1445,-2.1437,-2.1452,-2.1397,-2.1395,-2.1357,-2.1323,-2.1335,-2.1299,-2.1281,-2.1283,-2.1245,-2.1298,-2.1281,-2.1239,-2.1183,-2.1267,-2.1295,-2.1306,-2.1147,-2.1145,-2.1143,-2.1142,0,0,-2.1613,-2.1547,-2.1556,-2.154,-2.1496,-2.1496,-2.1508,-2.1491,-2.1491,-2.1468,-2.1478,-2.147,-2.1431,-2.1418,-2.1377,-2.1393,-2.1467,-2.1349,-2.1347,-2.1373,-2.1523,-2.1556,-2.1571,-2.1436,-2.1438,-2.1439,-2.1526,0,-2.1701,-2.1719,-2.1667,-2.1698,-2.1699,-2.1629,-2.164,-2.1614,-2.1582,-2.1579,-2.1543,-2.1539,-2.1487,-2.1479,-2.1492,-2.1455,-2.1496,-2.1448,-2.1445,-2.1445,-2.1457,-2.1585,-2.1619,-2.1703,-2.1537,-2.1538,-2.154,0,-2.1807,-2.179,-2.1822,-2.1776,-2.1774,-2.1785,-2.1765,-2.1762,-2.1731,-2.1707,-2.1692,-2.1645,-2.1654,-2.16,-2.1611,-2.158,-2.1575,-2.1557,-2.1559,-2.1558,-2.1499,-2.1588,-2.1728,-2.1742,-2.1556,-2.1554,-2.1553,0,-2.1921,-2.1906,-2.1922,-2.1911,-2.1858,-2.1867,-2.1845,-2.1812,-2.1805,-2.1787,-2.1782,-2.1765,-2.1757,-2.1745,-2.1695,-2.166,-2.1714,-2.1655,-2.1695,-2.1696,-2.171,-2.171,-2.1853,-2.1705,-2.1705,-2.1705,-2.1705,0,-2.2026,-2.2049,-2.1973,-2.1984,-2.2006,-2.1946,-2.197,-2.1941,-2.1912,-2.1916,-2.1855,-2.186,-2.1792,-2.179,-2.1751,-2.1767,-2.1764,-2.1745,-2.1734,-2.1751,-2.1754,-2.1748,-2.1742,-2.1708,-2.1707,-2.1707,-2.1706,0,-2.2158,-2.2108,-2.2122,-2.207,-2.2058,-2.2077,-2.2033,-2.2041,-2.2004,-2.201,-2.2008,-2.1952,-2.1946,-2.1895,-2.1877,-2.1851,-2.1883,-2.186,-2.1894,-2.1887,-2.193,-2.1927,-2.2075,-2.2092,-2.1933,-2.1934,-2.1936,0,-2.2229,-2.2245,-2.2195,-2.2193,-2.2174,-2.2172,-2.2164,-2.2105,-2.2099,-2.2066,-2.2078,-2.2067,-2.2055,-2.2049,-2.2007,-2.1993,-2.1971,-2.2024,-2.1968,-2.1985,-2.1973,-2.1974,-2.1975,-2.2036,-2.2038,-2.204,-2.2041,0,-2.2361,-2.2336,-2.2327,-2.231,-2.2303,-2.2287,-2.2267,-2.2269,-2.2203,-2.22,-2.2193,-2.2184,-2.2167,-2.2157,-2.2136,-2.2113,-2.2067,-2.2059,-2.2067,-2.2085,-2.2105,-2.2096,-2.1927,-2.2056,-2.2054,-2.2053,-2.2052,-2.2052,-2.2466,-2.2476,-2.2443,-2.2435,-2.2414,-2.2397,-2.2402,-2.2366,-2.2359,-2.234,-2.2306,-2.2304,-2.2273,-2.224,-2.2222,-2.222,-2.2192,-2.2205,-2.2208,-2.2212,-2.2222,-2.2104,-2.2216,-2.2215,-2.2215,-2.2214,-2.2214,0,-2.2596,-2.2571,-2.2564,-2.2538,-2.2532,-2.2488,-2.2464,-2.2462,-2.2462,-2.2436,-2.2426,-2.2418,-2.2409,-2.2366,-2.2351,-2.2358,-2.2337,-2.2357,-2.2356,-2.2352,-2.2247,-2.2241,-2.2374,-2.2374,-2.2374,-2.2374,-2.2374,-2.2374,-2.2663,-2.2679,-2.265,-2.2655,-2.2629,-2.2627,-2.2617,-2.2601,-2.258,-2.2575,-2.2566,-2.2538,-2.2506,-2.2489,-2.2478,-2.2465,-2.2464,-2.2491,-2.2472,-2.2375,-2.2359,-2.2345,-2.2339,-2.2491,-2.2491,-2.2577,-2.2578,-2.2579]},{"header":{"parameterUnit":"m.s-1","parameterCategory":1,"la1":30.2991,"la2":30.254,"lo1":-89.0895,"lo2":-89.0444,"dy":0.0017,"dx":0.0017,"nx":28,"ny":28,"refTime":"2023-09-24T21:00:00:Z","depth":0,"parameterNumber":3,"parameterNumberName":"V-component_of_WINDS"},"data":[0,0,0,0,0,0,0,0,0,0,0,0,0,0,0,0,0,0,0,0,0,0,0,0,0,0,0,0,0,0,0,0,0,0,0,0,0,0,0,0,0,0,0,0,0,0,0,0,0,0,0,0,0,0,0,0,0,0,-2.555,-2.555,0,-2.5605,-2.5605,-2.5606,-2.559,-2.5589,-2.5588,-2.5587,-2.5639,-2.5641,-2.5643,0,0,0,0,0,0,0,0,0,0,0,0,0,-2.5426,-2.5428,-2.555,-2.555,-2.5551,-2.5605,-2.5605,-2.5606,-2.5591,-2.5589,-2.5588,-2.5587,-2.5638,-2.5641,-2.5644,0,0,0,0,0,0,0,0,0,0,0,0,0,-2.548,-2.5429,-2.5549,-2.555,-2.555,-2.5604,-2.5605,-2.5606,-2.5591,-2.5589,-2.5588,-2.5586,-2.5637,-2.5641,-2.5644,-2.57,0,0,-2.5655,-2.5657,0,0,0,0,0,0,0,0,-2.5477,-2.5485,-2.5549,-2.555,-2.5551,-2.5589,-2.5581,-2.5637,-2.5591,-2.5575,-2.5587,-2.5585,-2.5623,-2.5628,-2.5642,-2.5702,-2.5704,-2.5655,-2.5658,-2.5659,-2.566,0,0,0,0,0,0,0,-2.5473,-2.5482,-2.5571,-2.555,-2.5551,-2.5546,-2.5551,-2.5591,-2.5608,-2.5577,-2.5576,-2.5583,-2.5623,-2.5638,-2.5643,-2.5705,-2.5655,-2.5659,-2.5661,-2.5662,-2.5814,-2.5815,0,0,0,0,0,0,-2.547,-2.5479,-2.5569,-2.5573,-2.5509,-2.5549,-2.5556,-2.5578,-2.5607,-2.561,-2.5584,-2.5582,-2.5633,-2.5639,-2.5645,-2.5712,-2.5659,-2.5663,-2.5665,-2.5812,-2.5814,-2.5816,0,0,0,0,0,0,-2.5467,-2.5478,-2.5567,-2.5526,-2.5537,-2.5553,-2.5579,-2.558,-2.5595,-2.5613,-2.5615,-2.5597,-2.5632,-2.5639,-2.5686,-2.5714,-2.5664,-2.5667,-2.581,-2.5812,-2.5815,-2.5847,0,0,0,0,0,0,-2.5464,-2.5477,-2.55,-2.5526,-2.5539,-2.561,-2.558,-2.5583,-2.5602,-2.56,-2.5626,-2.5628,-2.5631,-2.5681,-2.569,-2.5718,-2.567,-2.5807,-2.5811,-2.5814,-2.5844,-2.5851,-2.5857,0,0,0,0,0,-2.5459,-2.5505,-2.5501,-2.5512,-2.5568,-2.5611,-2.5618,-2.5622,-2.5604,-2.5627,-2.5638,-2.5627,-2.5709,-2.5686,-2.5696,-2.5725,-2.5806,-2.581,-2.5814,-2.5841,-2.5849,-2.5856,0,0,0,0,0,0,-2.5479,-2.5509,-2.5504,-2.5561,-2.5584,-2.5609,-2.5637,-2.5631,-2.5659,-2.5655,-2.5657,-2.5663,-2.5711,-2.5722,-2.5697,-2.578,-2.5754,-2.5761,-2.5772,-2.578,-2.5786,-2.5783,-2.5673,0,0,0,0,0,-2.5491,-2.5525,-2.5548,-2.5596,-2.5608,-2.562,-2.5639,-2.5641,-2.5664,-2.5673,-2.5688,-2.571,-2.574,-2.576,-2.5789,-2.5845,-2.585,-2.587,-2.5876,-2.5881,-2.5887,-2.5917,-2.5926,-2.583,-2.583,-2.583,0,0,-2.5514,-2.5534,-2.5555,-2.56,-2.5619,-2.5653,-2.5629,-2.5666,-2.5691,-2.5678,-2.5725,-2.5736,-2.576,-2.5812,-2.5835,-2.5823,-2.5915,-2.5887,-2.5891,-2.5894,-2.5922,-2.5932,-2.594,-2.5833,-2.5832,-2.5832,0,0,-2.5574,-2.5593,-2.5635,-2.5654,-2.5682,-2.569,-2.57,-2.5726,-2.5734,-2.578,-2.5772,-2.58,-2.5853,-2.5871,-2.5887,-2.5954,-2.5945,-2.5963,-2.5997,-2.6026,-2.6034,-2.6041,-2.6065,-2.6074,-2.5968,-2.5968,-2.5968,0,-2.5598,-2.5652,-2.5657,-2.5695,-2.5715,-2.5707,-2.5748,-2.5766,-2.5802,-2.5815,-2.58,-2.5867,-2.5882,-2.5938,-2.5955,-2.5968,-2.5979,-2.5961,-2.6033,-2.604,-2.6046,-2.6069,-2.6078,-2.597,-2.597,-2.597,-2.597,0,-2.5681,-2.5718,-2.5748,-2.5785,-2.5808,-2.5848,-2.5857,-2.588,-2.5878,-2.5888,-2.5934,-2.5953,-2.5986,-2.5999,-2.5997,-2.6055,-2.6046,-2.6032,-2.6006,-2.6057,-2.6079,-2.6088,-2.5973,-2.5973,-2.5972,-2.5972,0,0,-2.5756,-2.5796,-2.5807,-2.5823,-2.5854,-2.5882,-2.5921,-2.5955,-2.5974,-2.5998,-2.603,-2.6075,-2.6063,-2.6081,-2.6081,-2.6107,-2.6159,-2.609,-2.609,-2.6103,-2.6223,-2.6234,-2.6245,-2.6153,-2.6155,-2.6156,-2.6222,0,-2.5819,-2.589,-2.5896,-2.5959,-2.5993,-2.5985,-2.6019,-2.604,-2.605,-2.6079,-2.6088,-2.612,-2.6101,-2.6112,-2.6137,-2.6148,-2.6184,-2.6143,-2.6183,-2.6184,-2.6178,-2.6256,-2.6268,-2.6328,-2.623,-2.6231,-2.6233,0,-2.5903,-2.5932,-2.6,-2.6026,-2.604,-2.6071,-2.6103,-2.6131,-2.6154,-2.6159,-2.618,-2.6176,-2.6215,-2.6187,-2.624,-2.6212,-2.6228,-2.6236,-2.6238,-2.6243,-2.6212,-2.6263,-2.6348,-2.6357,-2.6246,-2.6245,-2.6244,0,-2.5952,-2.6008,-2.6056,-2.607,-2.6101,-2.6123,-2.6137,-2.6159,-2.6179,-2.6206,-2.6219,-2.6249,-2.6266,-2.6288,-2.6293,-2.6272,-2.6346,-2.6318,-2.635,-2.635,-2.6367,-2.6366,-2.6456,-2.6376,-2.6376,-2.6376,-2.6375,0,-2.6023,-2.6064,-2.6078,-2.6108,-2.6154,-2.6158,-2.6203,-2.6215,-2.6235,-2.6266,-2.6259,-2.6288,-2.6292,-2.632,-2.6324,-2.6367,-2.6374,-2.6378,-2.6379,-2.638,-2.6379,-2.6391,-2.6387,-2.6378,-2.6377,-2.6377,-2.6377,0,-2.6085,-2.6096,-2.6148,-2.6174,-2.6181,-2.6214,-2.6236,-2.6263,-2.6272,-2.631,-2.632,-2.6332,-2.6366,-2.6373,-2.6412,-2.6414,-2.6466,-2.6462,-2.6459,-2.6459,-2.6491,-2.6488,-2.6592,-2.6606,-2.6516,-2.6517,-2.6518,0,-2.613,-2.6162,-2.6192,-2.6214,-2.6229,-2.6262,-2.6283,-2.6288,-2.631,-2.634,-2.6364,-2.6397,-2.6424,-2.6478,-2.649,-2.652,-2.6517,-2.6551,-2.6521,-2.6521,-2.6518,-2.6517,-2.652,-2.6557,-2.6558,-2.6559,-2.656,0,-2.6209,-2.6213,-2.6244,-2.6278,-2.6304,-2.633,-2.6354,-2.6371,-2.6379,-2.6404,-2.6439,-2.6461,-2.6502,-2.6535,-2.6565,-2.6577,-2.657,-2.6569,-2.6578,-2.658,-2.6577,-2.6579,-2.6476,-2.6567,-2.6566,-2.6566,-2.6565,-2.6565,-2.6264,-2.6293,-2.6319,-2.6354,-2.6374,-2.6397,-2.6424,-2.6437,-2.6467,-2.6503,-2.6503,-2.6542,-2.6564,-2.6604,-2.6618,-2.6647,-2.6636,-2.6649,-2.6652,-2.6656,-2.6659,-2.6572,-2.6652,-2.6652,-2.6652,-2.6652,-2.6652,0,-2.6344,-2.636,-2.6392,-2.6428,-2.6456,-2.6448,-2.6475,-2.6498,-2.6533,-2.6555,-2.6582,-2.6623,-2.6655,-2.6669,-2.67,-2.6721,-2.6719,-2.6729,-2.6728,-2.6731,-2.6667,-2.6657,-2.6731,-2.6731,-2.6731,-2.6731,-2.6731,-2.6731,-2.6388,-2.6436,-2.6443,-2.65,-2.6516,-2.6555,-2.6571,-2.6592,-2.661,-2.6657,-2.6684,-2.6694,-2.6713,-2.6745,-2.6774,-2.6777,-2.6789,-2.6802,-2.6803,-2.6743,-2.6735,-2.6728,-2.6718,-2.6804,-2.6804,-2.6865,-2.6866,-2.6866]}]]